Vertical_Velocity
-3 1 -0 0 0 -1 -0 -1 -1 -1 -2 -1 -2 -0 -1 1 1 -1 -1 -1 -3 -3 -3 -1 -2 2 -1 0 5 -0 1 -0 -1 -1 -3 -2 -2 2 0 -0 -2 0 -4
-0 -2 0 0 2 2 -1 -2 -1 -1 -0 -2 -0 -1 2 5 3 -2 -2 -1 -1 -1 -1 -2 -2 0 9 4 2 1 0 -2 -3 -2 -1 -0 -1 -2 -2 -1 -3 1 -1
-1 -1 -2 -1 1 -0 3 0 -1 -1 -1 -1 -1 0 2 1 1 -1 -2 -1 -0 -1 -0 -1 -1 -2 1 -1 0 -1 1 -1 -1 2 -0 1 -3 2 2 0 -0 0 -1
1 -1 -1 -0 -0 2 1 2 1 -0 0 -2 1 -2 -2 -5 -8 -7 1 -1 -2 -1 -0 -1 0 -1 -0 0 -0 1 1 -1 -2 0 4 0 3 -2 3 -1 1 3 1
-0 -1 -4 -4 1 1 1 -0 1 1 0 -1 -2 -4 -4 -1 1 -1 0 -1 -1 1 -0 -1 -2 0 -2 -1 -2 0 1 2 -1 -3 -1 1 -3 2 -1 -1 1 1 5
4 4 10 -1 0 -0 1 1 -0 -0 1 0 1 -3 -5 -2 -1 2 -1 -0 1 -0 1 1 -1 -1 -1 1 -0 2 -2 -4 -1 0 -0 0 -2 2 -4 -1 -1 0 -3
1 2 4 -2 0 1 2 -1 0 -0 -1 1 1 -2 -3 -2 0 5 -1 1 1 1 -0 1 2 -2 -0 -0 -2 1 1 -2 0 -1 -1 1 0 1 1 -2 -1 1 1
1 2 4 -3 2 2 2 1 -0 0 -0 -1 -1 0 -0 -1 -2 -1 -1 1 -0 0 2 2 -1 -1 -0 -1 -1 -1 -1 -0 -1 -2 -2 1 -2 0 0 -2 -0 -2 0
1 3 4 -4 2 2 3 4 2 -0 -1 -1 -1 -0 -1 -2 -1 2 4 -1 -2 1 1 -1 -3 0 0 -1 -1 -2 -2 -3 -5 -0 -3 -1 -5 1 -3 3 2 4 3
-1 -1 -2 -1 -1 2 1 2 2 1 1 0 -1 -2 -0 0 1 -2 -1 -1 -1 1 -1 -0 -2 0 -1 1 -0 -2 -1 -2 2 -0 -2 -3 -2 0 -2 -2 -1 -2 -1
2 -2 -3 0 -3 0 2 -3 0 -0 -0 -1 1 -1 -2 -1 0 1 -4 -0 0 1 -0 -1 -1 0 0 0 -1 -1 -3 0 0 -1 -0 -0 0 -1 -1 -1 1 -3 -1
1 1 1 -1 -1 2 3 3 1 0 -3 -1 -1 -1 -2 -0 -1 1 1 -1 -2 -0 -0 -0 0 -2 -1 1 -1 -3 -0 -1 1 -1 0 -2 1 -1 2 1 -3 -0 1
4 1 0 0 -5 -5 -1 0 3 -1 -1 -1 0 0 -3 -1 -1 1 -0 1 -0 1 -1 -2 1 0 -2 -0 -1 -2 -0 -1 1 0 -4 -1 2 -0 -1 -0 0 3 -4
2 4 2 2 -2 -8 1 -3 2 -2 1 -2 -1 0 -2 -0 -1 -1 1 -1 0 -0 -2 1 -0 -0 -1 -2 -2 0 -3 -1 3 -3 -2 -0 1 2 1 -3 3 -2 -1
-2 -0 2 2 3 -3 -4 3 -2 -3 1 0 -0 1 1 -0 0 -2 -0 -2 -1 -0 -1 1 0 -2 -1 -2 -3 1 -1 -2 2 -2 -1 -1 1 -2 1 1 -3 -0 0
4 0 3 0 1 3 3 6 -5 -2 0 -1 3 1 0 2 2 -1 -3 -3 -3 -1 -1 1 -1 -2 1 -1 -2 -0 -1 -2 3 -1 2 -2 3 -1 -0 -0 -0 -1 -1
2 3 -0 4 1 2 5 3 1 -1 -2 1 -0 2 1 -2 -3 -1 0 -0 -3 -3 -0 -1 -1 -2 0 -0 -3 -1 -1 -2 1 -0 -0 1 1 -2 -0 -1 -1 -1 0
2 1 5 3 4 -0 1 1 3 3 -0 -0 -2 -1 -1 -2 -2 -1 -1 -1 -1 -1 -1 -2 -1 0 -0 -0 -1 -0 -1 -1 -0 1 -0 1 1 -0 -1 -0 -1 -1 -1
2 2 -4 0 4 5 1 4 2 5 1 -2 1 -0 -2 -1 -0 -1 -0 -2 -0 -1 -1 -2 -0 1 -1 0 -0 -2 -0 2 1 1 -1 1 -0 -1 -1 -3 0 -3 -1
2 1 1 0 0 2 2 5 3 1 2 1 -1 -1 -0 -0 1 -1 -2 -2 -1 -1 -0 -3 -1 -1 -2 -1 -3 -4 1 1 2 1 -1 0 -2 -0 -1 -1 -1 -1 -4
-3 -1 -0 0 -2 1 -3 -1 2 -2 1 1 0 1 1 2 0 -1 -2 -1 -1 0 -1 -2 -1 -3 -3 -3 -3 2 -0 1 1 1 -1 2 -2 -0 -1 -1 -1 -1 -1
0 -2 -1 -0 -2 3 4 2 9 3 1 2 1 2 3 1 1 -1 -1 -0 1 0 -1 -1 -1 -3 -3 -3 -3 -4 2 5 -0 0 -0 2 -0 1 1 -1 0 -0 -1
1 -2 -0 0 3 -1 -1 -1 -1 5 7 0 1 5 1 1 1 1 -0 -0 -1 -0 -1 -2 -2 -2 -2 -3 -1 -2 4 1 -7 -1 1 1 1 1 -1 -3 -2 -2 -0
-4 2 1 -2 4 0 -4 -1 7 1 -3 -4 2 2 1 -2 1 0 -0 -1 -0 -1 -1 -2 -3 -3 -2 -1 -3 -3 -2 -1 1 -4 -3 -3 -7 -9 -8 -5 -6 -4 -2
5 -4 1 2 3 2 -1 1 6 5 3 2 1 3 2 -1 1 0 -0 1 0 -0 -2 -3 -3 -3 -2 -2 -3 -1 0 -1 1 -1 -7 -4 -1 2 1 -1 -4 -0 0
6 2 0 1 1 2 -1 -1 -5 -4 -4 -3 -1 -1 1 1 0 1 1 0 0 -1 -2 -3 -2 -2 -3 -3 -2 -1 -1 -1 -1 1 1 -4 -1 -6 2 -0 -3 -2 -1
Height
1507 1509 1510 1512 1512 1514 1516 1517 1519 1519 1520 1520 1520 1521 1522 1523 1523 1523 1524 1524 1523 1523 1522 1523 1523 1521 1521 1521 1522 1522 1522 1521 1521 1520 1520 1518 1516 1515 1514 1514 1514 1516 1515
1507 1509 1511 1513 1514 1515 1515 1517 1518 1519 1519 1519 1519 1520 1522 1523 1524 1524 1524 1524 1523 1522 1521 1521 1522 1521 1521 1522 1521 1522 1521 1521 1521 1520 1519 1518 1516 1515 1515 1514 1514 1515 1515
1507 1510 1511 1514 1515 1516 1517 1517 1518 1519 1519 1519 1520 1521 1523 1523 1524 1525 1525 1524 1523 1523 1521 1520 1521 1522 1523 1522 1522 1522 1521 1520 1520 1519 1518 1518 1518 1517 1515 1515 1515 1514 1515
1507 1510 1513 1513 1515 1517 1518 1518 1518 1518 1519 1519 1521 1522 1524 1524 1525 1525 1525 1525 1524 1523 1522 1521 1522 1522 1523 1522 1522 1522 1521 1520 1519 1519 1519 1518 1518 1516 1517 1515 1516 1515 1515
1508 1510 1512 1514 1515 1516 1518 1519 1519 1518 1519 1519 1520 1523 1524 1525 1525 1526 1526 1526 1525 1524 1524 1522 1522 1522 1522 1522 1522 1522 1521 1519 1519 1519 1519 1518 1517 1517 1516 1515 1515 1515 1516
1508 1511 1511 1512 1515 1516 1518 1519 1519 1519 1519 1519 1520 1523 1524 1525 1526 1527 1526 1527 1526 1526 1525 1524 1523 1523 1523 1522 1522 1522 1521 1520 1520 1522 1520 1520 1518 1516 1515 1516 1515 1515 1514
1509 1511 1511 1513 1515 1517 1517 1519 1519 1519 1520 1520 1521 1522 1524 1525 1526 1526 1526 1527 1527 1526 1526 1525 1523 1523 1523 1523 1523 1522 1521 1521 1520 1521 1520 1519 1518 1517 1515 1515 1515 1514 1514
1510 1510 1511 1513 1515 1516 1518 1518 1519 1520 1519 1520 1522 1523 1523 1524 1525 1525 1526 1527 1527 1527 1526 1525 1524 1524 1524 1523 1523 1523 1522 1521 1521 1522 1521 1519 1517 1516 1515 1515 1514 1514 1513
1509 1510 1512 1512 1515 1516 1518 1518 1519 1519 1520 1520 1522 1523 1524 1524 1525 1526 1526 1527 1527 1527 1526 1525 1525 1524 1525 1523 1523 1523 1522 1521 1520 1522 1519 1518 1516 1515 1514 1514 1513 1512 1511
1507 1508 1511 1513 1514 1516 1517 1518 1519 1519 1520 1520 1521 1523 1524 1525 1525 1525 1527 1526 1526 1526 1526 1526 1525 1524 1524 1523 1522 1522 1521 1520 1520 1518 1518 1516 1515 1513 1512 1512 1510 1510 1509
1505 1506 1509 1511 1514 1516 1517 1517 1518 1519 1520 1521 1521 1522 1523 1524 1525 1525 1525 1526 1526 1526 1525 1525 1525 1525 1524 1523 1521 1521 1521 1519 1517 1517 1515 1514 1512 1511 1510 1510 1508 1507 1506
1504 1505 1506 1509 1512 1515 1515 1516 1516 1518 1519 1521 1521 1521 1521 1523 1524 1525 1524 1525 1526 1526 1525 1525 1524 1523 1524 1522 1521 1519 1519 1517 1515 1515 1512 1512 1510 1509 1509 1507 1505 1505 1504
1503 1503 1504 1506 1508 1511 1512 1514 1515 1517 1518 1519 1519 1520 1520 1522 1523 1524 1524 1525 1525 1525 1524 1524 1523 1522 1522 1521 1520 1518 1516 1514 1513 1512 1508 1509 1507 1507 1506 1504 1504 1502 1501
1500 1500 1501 1503 1504 1507 1508 1511 1512 1514 1515 1516 1517 1517 1518 1520 1521 1523 1524 1524 1523 1524 1524 1523 1522 1520 1519 1518 1517 1515 1513 1511 1510 1509 1506 1506 1504 1504 1503 1501 1501 1499 1499
1496 1497 1498 1500 1501 1502 1505 1506 1509 1510 1513 1514 1514 1515 1516 1518 1520 1521 1521 1522 1523 1523 1523 1522 1520 1518 1517 1515 1514 1512 1509 1508 1507 1506 1504 1503 1502 1502 1501 1500 1498 1497 1497
1493 1494 1495 1496 1497 1499 1499 1500 1503 1507 1510 1511 1512 1512 1514 1516 1517 1518 1519 1521 1521 1521 1521 1520 1518 1517 1515 1512 1510 1509 1506 1505 1504 1503 1503 1501 1501 1500 1499 1497 1496 1495 1494
1489 1490 1491 1492 1493 1494 1496 1497 1500 1502 1505 1507 1509 1510 1511 1512 1515 1516 1517 1518 1519 1520 1519 1518 1516 1514 1512 1509 1507 1506 1504 1503 1502 1501 1501 1500 1499 1497 1497 1495 1494 1493 1491
1482 1484 1485 1487 1488 1489 1491 1493 1496 1497 1499 1503 1505 1507 1508 1510 1513 1514 1516 1517 1517 1517 1517 1515 1514 1511 1509 1507 1505 1504 1502 1500 1499 1499 1499 1498 1497 1495 1494 1493 1491 1489 1488
1475 1478 1479 1481 1482 1484 1486 1489 1491 1493 1494 1498 1501 1503 1505 1508 1510 1512 1513 1515 1516 1515 1515 1513 1512 1510 1508 1506 1503 1502 1500 1498 1497 1497 1497 1496 1495 1493 1492 1489 1487 1485 1484
1467 1470 1473 1474 1476 1478 1480 1484 1486 1488 1491 1494 1497 1500 1503 1505 1507 1509 1512 1513 1514 1514 1512 1512 1511 1508 1507 1505 1502 1500 1498 1496 1495 1494 1494 1493 1491 1490 1488 1486 1483 1480 1478
1460 1463 1466 1467 1470 1472 1473 1475 1478 1482 1486 1490 1494 1497 1500 1502 1504 1506 1510 1511 1512 1512 1511 1510 1508 1506 1505 1503 1501 1500 1496 1494 1494 1493 1492 1491 1488 1486 1484 1482 1479 1476 1473
1453 1456 1458 1460 1463 1465 1467 1470 1474 1477 1482 1487 1490 1494 1497 1500 1502 1505 1507 1509 1509 1509 1509 1508 1506 1505 1503 1501 1501 1498 1498 1496 1493 1491 1490 1488 1486 1483 1481 1478 1476 1472 1469
1445 1447 1451 1453 1455 1458 1462 1465 1468 1473 1478 1483 1486 1489 1493 1497 1500 1503 1505 1506 1507 1507 1507 1506 1505 1504 1502 1500 1499 1500 1498 1496 1491 1488 1486 1484 1482 1480 1476 1472 1470 1467 1463
1436 1439 1442 1445 1448 1450 1454 1459 1464 1467 1471 1477 1482 1486 1489 1494 1498 1500 1502 1504 1504 1505 1504 1503 1503 1502 1500 1499 1497 1496 1495 1493 1491 1485 1483 1481 1479 1475 1471 1467 1464 1461 1457
1428 1430 1434 1438 1442 1444 1448 1455 1462 1466 1470 1474 1478 1483 1487 1491 1495 1498 1500 1501 1502 1501 1501 1501 1500 1499 1498 1497 1495 1493 1491 1489 1487 1485 1478 1476 1474 1471 1467 1462 1458 1454 1452
1419 1422 1427 1431 1435 1439 1444 1451 1456 1461 1466 1470 1475 1480 1485 1489 1493 1495 1497 1499 1500 1499 1498 1498 1497 1496 1495 1494 1492 1490 1488 1487 1485 1482 1477 1472 1468 1465 1461 1457 1452 1449 1446